Gentleman — WTA9437 — position and weather

sailwx.info

Track history (hours):
 
Tides and Currents Weather Stations Pressure Air Temp Water Temp Dewpoint Dewpoint Depression Visibility Wind Speed Wind Dir Waves Ship Positions

Gentleman

Owner: CHANNEL ISLAND SPORTFISHING, OXNARD, CA. More information available from US FCC via Universal Licensing System and Coast Guard Vessel Documentation Center.

Last reported at 2017-Sep-18 23:33 UTC. Time now 2017-Sep-19 17:02 UTC.
Position N 34°10' W 119°13'.

Length 20 m.

Type: Passenger vessel. MMSI: 367362110.

Date/timePositionNaut miles runAvg speedWind from/ knotsBaromVisibWave heightAir tempDewpointWater temp
2017-Sep-18 23:33N 34°10' W 119°13'0 0.8
2017-Sep-18 23:30N 34°10' W 119°13'2 4.2
2017-Sep-18 23:00N 34°08' W 119°15'4 7.7
2017-Sep-18 22:30N 34°05' W 119°17'4 7.7
2017-Sep-18 22:00N 34°02' W 119°20'2 5.0
2017-Sep-18 21:30N 34°00' W 119°22'0 0.0
2017-Sep-18 20:51N 34°00' W 119°22'1 0.8
2017-Sep-18 19:20N 34°01' W 119°21'1 0.4
2017-Sep-18 16:26N 34°00' W 119°23'0 0.0
2017-Sep-18 14:55N 34°00' W 119°23'1 2.8
2017-Sep-18 14:29N 34°01' W 119°21'4 8.3
2017-Sep-18 14:00N 34°04' W 119°18'4 8.4
2017-Sep-18 13:30N 34°08' W 119°15'3 3.3
2017-Sep-18 12:42N 34°10' W 119°13'0 0.1
2017-Sep-18 12:20N 34°10' W 119°13'0 0.0
2017-Sep-18 11:59N 34°10' W 119°13'0 0.0
2017-Sep-18 11:26N 34°10' W 119°13'0 0.0
2017-Sep-18 10:53N 34°10' W 119°13'0 0.0
2017-Sep-18 10:26N 34°10' W 119°13'0 0.0
2017-Sep-18 09:47N 34°10' W 119°13'0 0.0
2017-Sep-18 09:29N 34°10' W 119°13'0 0.0
2017-Sep-18 08:56N 34°10' W 119°13'0 0.0
2017-Sep-18 07:59N 34°10' W 119°13'0 0.0
2017-Sep-18 07:26N 34°10' W 119°13'0 0.0
2017-Sep-18 06:56N 34°10' W 119°13'0 0.0
2017-Sep-18 06:20N 34°10' W 119°13'0 0.0
2017-Sep-18 05:50N 34°10' W 119°13'0 0.0
2017-Sep-18 05:26N 34°10' W 119°13'0 0.0
2017-Sep-18 04:56N 34°10' W 119°13'0 0.0
2017-Sep-18 04:29N 34°10' W 119°13'0 0.0
2017-Sep-18 03:59N 34°10' W 119°13'0 0.0
2017-Sep-18 03:20N 34°10' W 119°13'0 0.0
2017-Sep-18 02:59N 34°10' W 119°13'0 0.0
2017-Sep-18 02:29N 34°10' W 119°13'0 0.0
2017-Sep-18 01:26N 34°10' W 119°13'0 0.0
2017-Sep-18 00:56N 34°10' W 119°13'0 0.0
2017-Sep-18 00:29N 34°10' W 119°13'0 0.0
2017-Sep-17 23:59N 34°10' W 119°13'0 0.1
2017-Sep-17 23:29N 34°10' W 119°13'3 5.8
2017-Sep-17 23:00N 34°07' W 119°15'3 6.5
2017-Sep-17 22:30N 34°05' W 119°18'3 6.4
2017-Sep-17 22:00N 34°02' W 119°20'2 3.3
2017-Sep-17 21:28N 34°01' W 119°21'0 0.0
2017-Sep-17 21:00N 34°01' W 119°21'0 0.9
2017-Sep-17 20:29N 34°01' W 119°21'0 0.1
2017-Sep-17 19:59N 34°01' W 119°21'0 0.0
2017-Sep-17 19:29N 34°01' W 119°21'0 0.0
2017-Sep-17 18:59N 34°01' W 119°21'0 0.0
2017-Sep-17 18:29N 34°01' W 119°21'0 0.6
2017-Sep-17 17:57N 34°01' W 119°21'0 0.6
2017-Sep-17 17:14N 34°01' W 119°21'1 1.0
2017-Sep-17 16:04N 34°00' W 119°22'0 0.3
2017-Sep-17 15:59N 34°00' W 119°22'1 0.9
2017-Sep-17 14:37N 34°01' W 119°21'0 0.6
2017-Sep-17 14:30N 34°01' W 119°21'5 8.8
2017-Sep-17 13:59N 34°05' W 119°18'4 8.7
2017-Sep-17 13:30N 34°08' W 119°15'2 3.8
2017-Sep-17 12:58N 34°10' W 119°13'0 0.1
2017-Sep-17 12:30N 34°10' W 119°13'0 0.1
2017-Sep-17 11:57N 34°10' W 119°13'0 0.0
2017-Sep-17 11:30N 34°10' W 119°13'0 0.0
2017-Sep-17 10:57N 34°10' W 119°13'0 0.0
2017-Sep-17 10:21N 34°10' W 119°13'0 0.0
2017-Sep-17 10:00N 34°10' W 119°13'0 0.0
2017-Sep-17 09:27N 34°10' W 119°13'0 0.0
2017-Sep-17 09:00N 34°10' W 119°13'0 0.0
2017-Sep-17 08:27N 34°10' W 119°13'0 0.0
2017-Sep-17 08:00N 34°10' W 119°13'0 0.0
2017-Sep-17 07:30N 34°10' W 119°13'0 0.0
2017-Sep-17 06:57N 34°10' W 119°13'0 0.0
2017-Sep-17 06:30N 34°10' W 119°13'0 0.0
2017-Sep-17 05:57N 34°10' W 119°13'0 0.0
2017-Sep-17 05:24N 34°10' W 119°13'0 0.0
2017-Sep-17 05:00N 34°10' W 119°13'0 0.0
2017-Sep-17 04:30N 34°10' W 119°13'0 0.0
2017-Sep-17 03:54N 34°10' W 119°13'0 0.0
2017-Sep-17 03:30N 34°10' W 119°13'0 0.0
2017-Sep-17 03:00N 34°10' W 119°13'0 0.0
2017-Sep-17 02:30N 34°10' W 119°13'0 0.0
2017-Sep-17 01:51N 34°10' W 119°13'0 0.0
2017-Sep-17 01:30N 34°10' W 119°13'0 0.0
2017-Sep-17 00:15N 34°10' W 119°13'0 0.0
2017-Sep-16 23:54N 34°10' W 119°13'0 0.7
2017-Sep-16 23:30N 34°10' W 119°13'0 0.6
2017-Sep-16 22:56N 34°09' W 119°14'1 2.0
2017-Sep-16 22:30N 34°09' W 119°14'4 6.9
2017-Sep-16 22:00N 34°06' W 119°17'4 7.2
2017-Sep-16 21:30N 34°03' W 119°20'2 2.4
2017-Sep-16 20:28N 34°01' W 119°21'0 0.0
2017-Sep-16 19:55N 34°01' W 119°21'0 0.0
2017-Sep-16 19:28N 34°01' W 119°21'0 0.0
2017-Sep-16 17:36N 34°01' W 119°21'0 1.1
2017-Sep-16 17:28N 34°01' W 119°21'0 0.0
2017-Sep-16 16:45N 34°01' W 119°21'0 1.2
2017-Sep-16 16:29N 34°01' W 119°21'0 0.1
2017-Sep-16 16:00N 34°01' W 119°21'0 0.8
2017-Sep-16 15:29N 34°01' W 119°21'0 0.0
2017-Sep-16 14:59N 34°01' W 119°21'2 3.5
2017-Sep-16 14:30N 34°02' W 119°20'4 8.4
2017-Sep-16 14:00N 34°06' W 119°17'4 8.3
2017-Sep-16 13:30N 34°09' W 119°14'1 2.0
2017-Sep-16 12:59N 34°10' W 119°13'0 0.0
2017-Sep-16 10:29N 34°10' W 119°13'0 0.0
2017-Sep-16 08:41N 34°10' W 119°13'0 0.0
2017-Sep-16 08:17N 34°10' W 119°13'0 0.0
2017-Sep-16 07:56N 34°10' W 119°13'0 0.0
2017-Sep-16 07:29N 34°10' W 119°13'0 0.0
2017-Sep-16 06:59N 34°10' W 119°13'0 0.0
2017-Sep-16 06:20N 34°10' W 119°13'0 0.0
2017-Sep-16 05:53N 34°10' W 119°13'0 0.0
2017-Sep-16 05:29N 34°10' W 119°13'0 0.0
2017-Sep-16 01:26N 34°10' W 119°13'0 0.0
2017-Sep-15 23:11N 34°10' W 119°13'1 2.7
2017-Sep-15 23:00N 34°09' W 119°14'1 2.7
2017-Sep-15 22:30N 34°08' W 119°15'4 7.2
2017-Sep-15 22:00N 34°06' W 119°18'3 6.6
2017-Sep-15 21:29N 34°03' W 119°20'2 3.8
2017-Sep-15 20:59N 34°01' W 119°21'0 0.0
2017-Sep-15 20:29N 34°01' W 119°21'0 0.0
2017-Sep-15 19:59N 34°01' W 119°21'2 3.5
2017-Sep-15 19:28N 34°01' W 119°19'0 0.1
2017-Sep-15 19:00N 34°01' W 119°19'0 0.5
2017-Sep-15 18:30N 34°01' W 119°19'0 0.1
2017-Sep-15 18:00N 34°02' W 119°19'0 0.1
2017-Sep-15 17:28N 34°02' W 119°19'0 0.3
2017-Sep-15 17:00N 34°01' W 119°19'0 0.2
2017-Sep-15 16:30N 34°01' W 119°20'4 8.0
2017-Sep-15 16:00N 34°05' W 119°17'4 8.5
2017-Sep-15 15:30N 34°09' W 119°15'2 2.8
2017-Sep-15 14:57N 34°10' W 119°13'0 0.0
2017-Sep-15 14:24N 34°10' W 119°13'0 0.0
2017-Sep-15 13:57N 34°10' W 119°13'0 0.0
2017-Sep-15 12:54N 34°10' W 119°13'0 0.0
2017-Sep-15 12:00N 34°10' W 119°13'0 0.0
2017-Sep-15 07:33N 34°10' W 119°13'0 0.0
2017-Sep-15 07:24N 34°10' W 119°13'0 0.0
2017-Sep-15 07:00N 34°10' W 119°13'0 0.0
2017-Sep-15 06:21N 34°10' W 119°13'0 0.0
2017-Sep-15 05:57N 34°10' W 119°13'0 0.0
2017-Sep-15 05:30N 34°10' W 119°13'0 0.0
2017-Sep-15 04:51N 34°10' W 119°13'0 0.0
2017-Sep-15 02:06N 34°10' W 119°13'0 0.0
2017-Sep-15 02:00N 34°10' W 119°13'0 0.0
2017-Sep-14 23:03N 34°10' W 119°13'0 0.0
2017-Sep-14 22:54N 34°10' W 119°13'0 0.0
2017-Sep-14 21:51N 34°10' W 119°13'0 0.0
2017-Sep-14 21:30N 34°10' W 119°13'0 0.0
2017-Sep-14 20:45N 34°10' W 119°13'0 0.0
2017-Sep-14 17:09N 34°10' W 119°13'0 0.0
2017-Sep-14 13:18N 34°10' W 119°13'0 0.0
2017-Sep-14 12:54N 34°10' W 119°13'0 0.0
2017-Sep-14 12:30N 34°10' W 119°13'0 0.0
2017-Sep-14 11:51N 34°10' W 119°13'0 0.0
2017-Sep-14 10:51N 34°10' W 119°13'0 0.0
2017-Sep-14 10:21N 34°10' W 119°13'0 0.0
2017-Sep-14 10:00N 34°10' W 119°13'0 0.0
2017-Sep-14 09:30N 34°10' W 119°13'0 0.0
2017-Sep-14 06:51N 34°10' W 119°13'0 0.0
2017-Sep-14 06:30N 34°10' W 119°13'0 0.0
2017-Sep-14 06:00N 34°10' W 119°13'0 0.0
2017-Sep-14 00:00N 34°10' W 119°13'0 0.0
2017-Sep-13 23:30N 34°10' W 119°13'1 1.3
2017-Sep-13 23:00N 34°09' W 119°14'4 8.3
2017-Sep-13 22:28N 34°07' W 119°18'4 8.5
2017-Sep-13 21:59N 34°06' W 119°23'4 8.8
2017-Sep-13 21:30N 34°04' W 119°28'3 6.5
2017-Sep-13 21:00N 34°02' W 119°31'0 0.1
2017-Sep-13 20:15N 34°02' W 119°31'0 0.0
2017-Sep-13 19:43N 34°02' W 119°31'1 6.1
2017-Sep-13 19:31N 34°01' W 119°30'2 2.2
2017-Sep-13 18:49N 33°60' W 119°29'0 1.1
2017-Sep-13 18:28N 33°60' W 119°30'0 0.5
2017-Sep-13 17:59N 33°60' W 119°30'0 0.8
2017-Sep-13 17:30N 33°60' W 119°30'2 0.8
2017-Sep-13 15:11N 34°02' W 119°30'3 8.9
2017-Sep-13 14:50N 34°02' W 119°27'3 8.9
2017-Sep-13 14:28N 34°04' W 119°23'4 9.3
2017-Sep-13 14:00N 34°06' W 119°19'5 9.4
2017-Sep-13 13:30N 34°09' W 119°14'1 1.9
2017-Sep-13 12:58N 34°10' W 119°13'0 0.0
2017-Sep-13 12:25N 34°10' W 119°13'0 0.0
2017-Sep-13 11:49N 34°10' W 119°13'0 0.0
2017-Sep-13 11:13N 34°10' W 119°13'0 0.0
2017-Sep-13 10:58N 34°10' W 119°13'0 0.0
2017-Sep-13 10:07N 34°10' W 119°13'0 0.0
2017-Sep-13 09:52N 34°10' W 119°13'0 0.0
2017-Sep-13 09:28N 34°10' W 119°13'0 0.0
2017-Sep-13 08:55N 34°10' W 119°13'0 0.0
2017-Sep-13 08:25N 34°10' W 119°13'0 0.0
2017-Sep-13 07:58N 34°10' W 119°13'0 0.0
2017-Sep-13 07:28N 34°10' W 119°13'0 0.0
2017-Sep-13 06:55N 34°10' W 119°13'0 0.0
2017-Sep-13 06:22N 34°10' W 119°13'0 0.0
2017-Sep-13 05:55N 34°10' W 119°13'0 0.0
2017-Sep-13 05:25N 34°10' W 119°13'0 0.0
2017-Sep-13 04:58N 34°10' W 119°13'0 0.0
2017-Sep-13 04:28N 34°10' W 119°13'0 0.0
2017-Sep-13 03:58N 34°10' W 119°13'0 0.0
2017-Sep-13 03:28N 34°10' W 119°13'0 0.0
2017-Sep-13 02:58N 34°10' W 119°13'0 0.0
2017-Sep-13 02:19N 34°10' W 119°13'0 0.0
2017-Sep-13 01:58N 34°10' W 119°13'0 0.0
2017-Sep-13 01:28N 34°10' W 119°13'0 0.0
2017-Sep-13 00:58N 34°10' W 119°13'0 0.0
2017-Sep-13 00:28N 34°10' W 119°13'0 0.1
2017-Sep-12 23:52N 34°10' W 119°13'0 0.2
2017-Sep-12 23:29N 34°10' W 119°13'4 7.7
2017-Sep-12 22:57N 34°08' W 119°18'4 8.7
2017-Sep-12 22:30N 34°06' W 119°22'6 9.0
2017-Sep-12 21:48N 34°03' W 119°29'2 3.0
2017-Sep-12 21:01N 34°02' W 119°31'0 0.4
2017-Sep-12 20:48N 34°02' W 119°31'0 0.2
2017-Sep-12 20:26N 34°02' W 119°31'0 0.1
2017-Sep-12 18:24N 34°02' W 119°31'0 0.2
2017-Sep-12 17:57N 34°02' W 119°31'1 1.9
2017-Sep-12 17:19N 34°03' W 119°32'0 0.5
2017-Sep-12 16:32N 34°03' W 119°32'0 0.0
2017-Sep-12 16:16N 34°03' W 119°32'0 1.3
2017-Sep-12 15:56N 34°02' W 119°31'0 0.8
2017-Sep-12 15:24N 34°02' W 119°31'2 5.5
2017-Sep-12 15:00N 34°03' W 119°29'4 8.4
2017-Sep-12 14:30N 34°05' W 119°24'4 8.6
2017-Sep-12 14:00N 34°07' W 119°20'4 8.9
2017-Sep-12 13:30N 34°09' W 119°15'2 2.6
2017-Sep-12 12:54N 34°10' W 119°13'0 0.0
2017-Sep-12 12:28N 34°10' W 119°13'0 0.0
2017-Sep-12 11:34N 34°10' W 119°13'0 0.0
2017-Sep-12 10:10N 34°10' W 119°13'0 0.0
2017-Sep-12 09:52N 34°10' W 119°13'0 0.0
2017-Sep-12 09:28N 34°10' W 119°13'0 0.0
2017-Sep-12 08:58N 34°10' W 119°13'0 0.0
2017-Sep-12 08:28N 34°10' W 119°13'0 0.0
2017-Sep-12 07:40N 34°10' W 119°13'0 0.0
2017-Sep-12 05:46N 34°10' W 119°13'0 0.0
2017-Sep-12 05:28N 34°10' W 119°13'3 0.4
2017-Sep-11 23:10N 34°08' W 119°16'3 8.9
2017-Sep-11 22:53N 34°07' W 119°19'4 9.4
2017-Sep-11 22:25N 34°05' W 119°24'4 9.6
2017-Sep-11 21:59N 34°03' W 119°28'3 5.3
2017-Sep-11 21:27N 34°02' W 119°31'0 0.0
2017-Sep-11 20:54N 34°02' W 119°31'2 0.9
2017-Sep-11 19:07N 34°03' W 119°33'1 8.0
2017-Sep-11 18:57N 34°03' W 119°34'5 4.7
2017-Sep-11 17:59N 34°01' W 119°39'3 2.2
2017-Sep-11 16:45N 34°03' W 119°36'0 0.9
2017-Sep-11 16:15N 34°03' W 119°36'0 0.2
2017-Sep-11 15:40N 34°03' W 119°36'1 2.1
2017-Sep-11 15:23N 34°03' W 119°35'6 9.1
2017-Sep-11 14:44N 34°03' W 119°28'2 8.9
2017-Sep-11 14:28N 34°04' W 119°25'4 8.8
2017-Sep-11 13:58N 34°06' W 119°20'4 9.0
2017-Sep-11 13:29N 34°08' W 119°16'3 5.3
2017-Sep-11 13:00N 34°10' W 119°13'0 0.0
2017-Sep-11 12:24N 34°10' W 119°13'0 0.0
2017-Sep-11 11:33N 34°10' W 119°13'0 0.0
2017-Sep-11 11:30N 34°10' W 119°13'0 0.0
2017-Sep-11 11:00N 34°10' W 119°13'0 0.0
2017-Sep-11 10:12N 34°10' W 119°13'0 0.0
2017-Sep-11 09:57N 34°10' W 119°13'0 0.0
2017-Sep-11 09:27N 34°10' W 119°13'0 0.0
2017-Sep-11 08:18N 34°10' W 119°13'0 0.0
2017-Sep-11 08:00N 34°10' W 119°13'0 0.0
2017-Sep-11 06:46N 34°10' W 119°13'0 0.0
2017-Sep-11 06:27N 34°10' W 119°13'0 0.0
2017-Sep-11 05:27N 34°10' W 119°13'0 0.0
2017-Sep-11 04:42N 34°10' W 119°13'0 0.0
2017-Sep-11 04:15N 34°10' W 119°13'0 0.0
2017-Sep-11 04:00N 34°10' W 119°13'0 0.0
2017-Sep-11 03:30N 34°10' W 119°13'0 0.0
2017-Sep-11 02:30N 34°10' W 119°13'0 0.0
2017-Sep-11 01:57N 34°10' W 119°13'0 0.0
2017-Sep-11 01:21N 34°10' W 119°13'0 0.0
2017-Sep-11 00:48N 34°10' W 119°13'0 0.1
2017-Sep-10 23:28N 34°10' W 119°13'4 7.8
2017-Sep-10 22:54N 34°07' W 119°17'4 7.8
2017-Sep-10 22:20N 34°04' W 119°22'2 6.5
2017-Sep-10 21:58N 34°03' W 119°24'6 3.3
2017-Sep-10 20:14N 33°60' W 119°30'0 1.7
2017-Sep-10 20:00N 34°00' W 119°30'1 1.0
2017-Sep-10 19:26N 33°60' W 119°31'2 0.6
2017-Sep-10 16:08N 33°59' W 119°33'0 0.0
2017-Sep-10 15:59N 33°59' W 119°33'1 1.6
2017-Sep-10 15:14N 33°59' W 119°31'2 8.9
2017-Sep-10 15:00N 34°00' W 119°29'9 9.1
2017-Sep-10 13:59N 34°05' W 119°20'4 8.8
2017-Sep-10 13:30N 34°08' W 119°16'3 3.9
2017-Sep-10 12:48N 34°10' W 119°13'0 0.1
2017-Sep-10 12:29N 34°10' W 119°13'0 0.0
2017-Sep-10 11:53N 34°10' W 119°13'0 0.0
2017-Sep-10 11:29N 34°10' W 119°13'0 0.0
2017-Sep-10 10:59N 34°10' W 119°13'0 0.0
2017-Sep-10 10:29N 34°10' W 119°13'0 0.0
2017-Sep-10 09:47N 34°10' W 119°13'0 0.0
2017-Sep-10 09:29N 34°10' W 119°13'0 0.0
2017-Sep-10 08:53N 34°10' W 119°13'0 0.0
2017-Sep-10 08:29N 34°10' W 119°13'0 0.0
2017-Sep-10 07:53N 34°10' W 119°13'0 0.0
2017-Sep-10 07:29N 34°10' W 119°13'0 0.0
2017-Sep-10 06:41N 34°10' W 119°13'0 0.0
2017-Sep-10 06:23N 34°10' W 119°13'0 0.0
2017-Sep-10 05:56N 34°10' W 119°13'0 0.0
2017-Sep-10 05:29N 34°10' W 119°13'0 0.0
2017-Sep-10 04:59N 34°10' W 119°13'0 0.0
2017-Sep-10 04:29N 34°10' W 119°13'0 0.0
2017-Sep-10 03:56N 34°10' W 119°13'0 0.0
2017-Sep-10 03:29N 34°10' W 119°13'0 0.0
2017-Sep-10 02:56N 34°10' W 119°13'0 0.0
2017-Sep-10 02:29N 34°10' W 119°13'0 0.0
2017-Sep-10 01:59N 34°10' W 119°13'0 0.0
2017-Sep-10 01:29N 34°10' W 119°13'0 0.0
2017-Sep-10 00:59N 34°10' W 119°13'0 0.0
2017-Sep-10 00:29N 34°10' W 119°13'0 0.0
2017-Sep-09 23:56N 34°10' W 119°13'2 4.8
2017-Sep-09 23:30N 34°08' W 119°15'5 8.9
2017-Sep-09 22:57N 34°06' W 119°20'4 8.8
2017-Sep-09 22:30N 34°05' W 119°25'6 4.1
2017-Sep-09 21:06N 34°02' W 119°31'0 0.2
2017-Sep-09 20:47N 34°02' W 119°31'1 0.9
2017-Sep-09 19:42N 34°03' W 119°32'1 3.1
2017-Sep-09 19:28N 34°02' W 119°31'0 0.1
2017-Sep-09 18:32N 34°02' W 119°31'0 2.0
2017-Sep-09 18:30N 34°02' W 119°31'3 1.4
2017-Sep-09 16:21N 33°59' W 119°33'3 8.9
2017-Sep-09 16:00N 34°00' W 119°29'3 6.5
2017-Sep-09 15:29N 34°01' W 119°25'0 0.4
2017-Sep-09 15:00N 34°01' W 119°25'2 5.0
2017-Sep-09 14:30N 34°03' W 119°23'5 9.2
2017-Sep-09 14:00N 34°06' W 119°19'5 9.0
2017-Sep-09 13:30N 34°09' W 119°15'2 3.1
2017-Sep-09 12:57N 34°10' W 119°13'0 0.0
2017-Sep-09 12:29N 34°10' W 119°13'0 0.0
2017-Sep-09 11:50N 34°10' W 119°13'0 0.0
2017-Sep-09 11:26N 34°10' W 119°13'0 0.0
2017-Sep-09 10:59N 34°10' W 119°13'0 0.0
2017-Sep-09 10:29N 34°10' W 119°13'0 0.0
2017-Sep-09 09:59N 34°10' W 119°13'0 0.0
2017-Sep-09 09:26N 34°10' W 119°13'0 0.0
2017-Sep-09 08:56N 34°10' W 119°13'0 0.0
2017-Sep-09 08:29N 34°10' W 119°13'0 0.0
2017-Sep-09 07:59N 34°10' W 119°13'0 0.0
2017-Sep-09 07:29N 34°10' W 119°13'0 0.0
2017-Sep-09 06:59N 34°10' W 119°13'0 0.0
2017-Sep-09 06:29N 34°10' W 119°13'0 0.0
2017-Sep-09 05:56N 34°10' W 119°13'0 0.0
2017-Sep-09 05:26N 34°10' W 119°13'0 0.0
2017-Sep-09 04:59N 34°10' W 119°13'0 0.0
2017-Sep-09 04:29N 34°10' W 119°13'0 0.0
2017-Sep-09 03:53N 34°10' W 119°13'0 0.0
2017-Sep-09 03:20N 34°10' W 119°13'0 0.0
2017-Sep-09 02:59N 34°10' W 119°13'0 0.0
2017-Sep-09 02:29N 34°10' W 119°13'0 0.0
2017-Sep-09 01:59N 34°10' W 119°13'  
Track history (hours):
 
Tides and Currents Weather Stations Pressure Air Temp Water Temp Dewpoint Dewpoint Depression Visibility Wind Speed Wind Dir Waves Ship Positions

Gentleman

Owner: CHANNEL ISLAND SPORTFISHING, OXNARD, CA. More information available from US FCC via Universal Licensing System and Coast Guard Vessel Documentation Center.

Last reported at 2017-Sep-18 23:33 UTC. Time now 2017-Sep-19 17:02 UTC.
Position N 34°10' W 119°13'.

Length 20 m.

Type: Passenger vessel. MMSI: 367362110.

Date/timePositionNaut miles runAvg speedWind from/ knotsBaromVisibWave heightAir tempDewpointWater temp
2017-Sep-18 23:33N 34°10' W 119°13'0 0.8
2017-Sep-18 23:30N 34°10' W 119°13'2 4.2
2017-Sep-18 23:00N 34°08' W 119°15'4 7.7
2017-Sep-18 22:30N 34°05' W 119°17'4 7.7
2017-Sep-18 22:00N 34°02' W 119°20'2 5.0
2017-Sep-18 21:30N 34°00' W 119°22'0 0.0
2017-Sep-18 20:51N 34°00' W 119°22'1 0.8
2017-Sep-18 19:20N 34°01' W 119°21'1 0.4
2017-Sep-18 16:26N 34°00' W 119°23'0 0.0
2017-Sep-18 14:55N 34°00' W 119°23'1 2.8
2017-Sep-18 14:29N 34°01' W 119°21'4 8.3
2017-Sep-18 14:00N 34°04' W 119°18'4 8.4
2017-Sep-18 13:30N 34°08' W 119°15'3 3.3
2017-Sep-18 12:42N 34°10' W 119°13'0 0.1
2017-Sep-18 12:20N 34°10' W 119°13'0 0.0
2017-Sep-18 11:59N 34°10' W 119°13'0 0.0
2017-Sep-18 11:26N 34°10' W 119°13'0 0.0
2017-Sep-18 10:53N 34°10' W 119°13'0 0.0
2017-Sep-18 10:26N 34°10' W 119°13'0 0.0
2017-Sep-18 09:47N 34°10' W 119°13'0 0.0
2017-Sep-18 09:29N 34°10' W 119°13'0 0.0
2017-Sep-18 08:56N 34°10' W 119°13'0 0.0
2017-Sep-18 07:59N 34°10' W 119°13'0 0.0
2017-Sep-18 07:26N 34°10' W 119°13'0 0.0
2017-Sep-18 06:56N 34°10' W 119°13'0 0.0
2017-Sep-18 06:20N 34°10' W 119°13'0 0.0
2017-Sep-18 05:50N 34°10' W 119°13'0 0.0
2017-Sep-18 05:26N 34°10' W 119°13'0 0.0
2017-Sep-18 04:56N 34°10' W 119°13'0 0.0
2017-Sep-18 04:29N 34°10' W 119°13'0 0.0
2017-Sep-18 03:59N 34°10' W 119°13'0 0.0
2017-Sep-18 03:20N 34°10' W 119°13'0 0.0
2017-Sep-18 02:59N 34°10' W 119°13'0 0.0
2017-Sep-18 02:29N 34°10' W 119°13'0 0.0
2017-Sep-18 01:26N 34°10' W 119°13'0 0.0
2017-Sep-18 00:56N 34°10' W 119°13'0 0.0
2017-Sep-18 00:29N 34°10' W 119°13'0 0.0
2017-Sep-17 23:59N 34°10' W 119°13'0 0.1
2017-Sep-17 23:29N 34°10' W 119°13'3 5.8
2017-Sep-17 23:00N 34°07' W 119°15'3 6.5
2017-Sep-17 22:30N 34°05' W 119°18'3 6.4
2017-Sep-17 22:00N 34°02' W 119°20'2 3.3
2017-Sep-17 21:28N 34°01' W 119°21'0 0.0
2017-Sep-17 21:00N 34°01' W 119°21'0 0.9
2017-Sep-17 20:29N 34°01' W 119°21'0 0.1
2017-Sep-17 19:59N 34°01' W 119°21'0 0.0
2017-Sep-17 19:29N 34°01' W 119°21'0 0.0
2017-Sep-17 18:59N 34°01' W 119°21'0 0.0
2017-Sep-17 18:29N 34°01' W 119°21'0 0.6
2017-Sep-17 17:57N 34°01' W 119°21'0 0.6
2017-Sep-17 17:14N 34°01' W 119°21'1 1.0
2017-Sep-17 16:04N 34°00' W 119°22'0 0.3
2017-Sep-17 15:59N 34°00' W 119°22'1 0.9
2017-Sep-17 14:37N 34°01' W 119°21'0 0.6
2017-Sep-17 14:30N 34°01' W 119°21'5 8.8
2017-Sep-17 13:59N 34°05' W 119°18'4 8.7
2017-Sep-17 13:30N 34°08' W 119°15'2 3.8
2017-Sep-17 12:58N 34°10' W 119°13'0 0.1
2017-Sep-17 12:30N 34°10' W 119°13'0 0.1
2017-Sep-17 11:57N 34°10' W 119°13'0 0.0
2017-Sep-17 11:30N 34°10' W 119°13'0 0.0
2017-Sep-17 10:57N 34°10' W 119°13'0 0.0
2017-Sep-17 10:21N 34°10' W 119°13'0 0.0
2017-Sep-17 10:00N 34°10' W 119°13'0 0.0
2017-Sep-17 09:27N 34°10' W 119°13'0 0.0
2017-Sep-17 09:00N 34°10' W 119°13'0 0.0
2017-Sep-17 08:27N 34°10' W 119°13'0 0.0
2017-Sep-17 08:00N 34°10' W 119°13'0 0.0
2017-Sep-17 07:30N 34°10' W 119°13'0 0.0
2017-Sep-17 06:57N 34°10' W 119°13'0 0.0
2017-Sep-17 06:30N 34°10' W 119°13'0 0.0
2017-Sep-17 05:57N 34°10' W 119°13'0 0.0
2017-Sep-17 05:24N 34°10' W 119°13'0 0.0
2017-Sep-17 05:00N 34°10' W 119°13'0 0.0
2017-Sep-17 04:30N 34°10' W 119°13'0 0.0
2017-Sep-17 03:54N 34°10' W 119°13'0 0.0
2017-Sep-17 03:30N 34°10' W 119°13'0 0.0
2017-Sep-17 03:00N 34°10' W 119°13'0 0.0
2017-Sep-17 02:30N 34°10' W 119°13'0 0.0
2017-Sep-17 01:51N 34°10' W 119°13'0 0.0
2017-Sep-17 01:30N 34°10' W 119°13'0 0.0
2017-Sep-17 00:15N 34°10' W 119°13'0 0.0
2017-Sep-16 23:54N 34°10' W 119°13'0 0.7
2017-Sep-16 23:30N 34°10' W 119°13'0 0.6
2017-Sep-16 22:56N 34°09' W 119°14'1 2.0
2017-Sep-16 22:30N 34°09' W 119°14'4 6.9
2017-Sep-16 22:00N 34°06' W 119°17'4 7.2
2017-Sep-16 21:30N 34°03' W 119°20'2 2.4
2017-Sep-16 20:28N 34°01' W 119°21'0 0.0
2017-Sep-16 19:55N 34°01' W 119°21'0 0.0
2017-Sep-16 19:28N 34°01' W 119°21'0 0.0
2017-Sep-16 17:36N 34°01' W 119°21'0 1.1
2017-Sep-16 17:28N 34°01' W 119°21'0 0.0
2017-Sep-16 16:45N 34°01' W 119°21'0 1.2
2017-Sep-16 16:29N 34°01' W 119°21'0 0.1
2017-Sep-16 16:00N 34°01' W 119°21'0 0.8
2017-Sep-16 15:29N 34°01' W 119°21'0 0.0
2017-Sep-16 14:59N 34°01' W 119°21'2 3.5
2017-Sep-16 14:30N 34°02' W 119°20'4 8.4
2017-Sep-16 14:00N 34°06' W 119°17'4 8.3
2017-Sep-16 13:30N 34°09' W 119°14'1 2.0
2017-Sep-16 12:59N 34°10' W 119°13'0 0.0
2017-Sep-16 10:29N 34°10' W 119°13'0 0.0
2017-Sep-16 08:41N 34°10' W 119°13'0 0.0
2017-Sep-16 08:17N 34°10' W 119°13'0 0.0
2017-Sep-16 07:56N 34°10' W 119°13'0 0.0
2017-Sep-16 07:29N 34°10' W 119°13'0 0.0
2017-Sep-16 06:59N 34°10' W 119°13'0 0.0
2017-Sep-16 06:20N 34°10' W 119°13'0 0.0
2017-Sep-16 05:53N 34°10' W 119°13'0 0.0
2017-Sep-16 05:29N 34°10' W 119°13'0 0.0
2017-Sep-16 01:26N 34°10' W 119°13'0 0.0
2017-Sep-15 23:11N 34°10' W 119°13'1 2.7
2017-Sep-15 23:00N 34°09' W 119°14'1 2.7
2017-Sep-15 22:30N 34°08' W 119°15'4 7.2
2017-Sep-15 22:00N 34°06' W 119°18'3 6.6
2017-Sep-15 21:29N 34°03' W 119°20'2 3.8
2017-Sep-15 20:59N 34°01' W 119°21'0 0.0
2017-Sep-15 20:29N 34°01' W 119°21'0 0.0
2017-Sep-15 19:59N 34°01' W 119°21'2 3.5
2017-Sep-15 19:28N 34°01' W 119°19'0 0.1
2017-Sep-15 19:00N 34°01' W 119°19'0 0.5
2017-Sep-15 18:30N 34°01' W 119°19'0 0.1
2017-Sep-15 18:00N 34°02' W 119°19'0 0.1
2017-Sep-15 17:28N 34°02' W 119°19'0 0.3
2017-Sep-15 17:00N 34°01' W 119°19'0 0.2
2017-Sep-15 16:30N 34°01' W 119°20'4 8.0
2017-Sep-15 16:00N 34°05' W 119°17'4 8.5
2017-Sep-15 15:30N 34°09' W 119°15'2 2.8
2017-Sep-15 14:57N 34°10' W 119°13'0 0.0
2017-Sep-15 14:24N 34°10' W 119°13'0 0.0
2017-Sep-15 13:57N 34°10' W 119°13'0 0.0
2017-Sep-15 12:54N 34°10' W 119°13'0 0.0
2017-Sep-15 12:00N 34°10' W 119°13'0 0.0
2017-Sep-15 07:33N 34°10' W 119°13'0 0.0
2017-Sep-15 07:24N 34°10' W 119°13'0 0.0
2017-Sep-15 07:00N 34°10' W 119°13'0 0.0
2017-Sep-15 06:21N 34°10' W 119°13'0 0.0
2017-Sep-15 05:57N 34°10' W 119°13'0 0.0
2017-Sep-15 05:30N 34°10' W 119°13'0 0.0
2017-Sep-15 04:51N 34°10' W 119°13'0 0.0
2017-Sep-15 02:06N 34°10' W 119°13'0 0.0
2017-Sep-15 02:00N 34°10' W 119°13'0 0.0
2017-Sep-14 23:03N 34°10' W 119°13'0 0.0
2017-Sep-14 22:54N 34°10' W 119°13'0 0.0
2017-Sep-14 21:51N 34°10' W 119°13'0 0.0
2017-Sep-14 21:30N 34°10' W 119°13'0 0.0
2017-Sep-14 20:45N 34°10' W 119°13'0 0.0
2017-Sep-14 17:09N 34°10' W 119°13'0 0.0
2017-Sep-14 13:18N 34°10' W 119°13'0 0.0
2017-Sep-14 12:54N 34°10' W 119°13'0 0.0
2017-Sep-14 12:30N 34°10' W 119°13'0 0.0
2017-Sep-14 11:51N 34°10' W 119°13'0 0.0
2017-Sep-14 10:51N 34°10' W 119°13'0 0.0
2017-Sep-14 10:21N 34°10' W 119°13'0 0.0
2017-Sep-14 10:00N 34°10' W 119°13'0 0.0
2017-Sep-14 09:30N 34°10' W 119°13'0 0.0
2017-Sep-14 06:51N 34°10' W 119°13'0 0.0
2017-Sep-14 06:30N 34°10' W 119°13'0 0.0
2017-Sep-14 06:00N 34°10' W 119°13'0 0.0
2017-Sep-14 00:00N 34°10' W 119°13'0 0.0
2017-Sep-13 23:30N 34°10' W 119°13'1 1.3
2017-Sep-13 23:00N 34°09' W 119°14'4 8.3
2017-Sep-13 22:28N 34°07' W 119°18'4 8.5
2017-Sep-13 21:59N 34°06' W 119°23'4 8.8
2017-Sep-13 21:30N 34°04' W 119°28'3 6.5
2017-Sep-13 21:00N 34°02' W 119°31'0 0.1
2017-Sep-13 20:15N 34°02' W 119°31'0 0.0
2017-Sep-13 19:43N 34°02' W 119°31'1 6.1
2017-Sep-13 19:31N 34°01' W 119°30'2 2.2
2017-Sep-13 18:49N 33°60' W 119°29'0 1.1
2017-Sep-13 18:28N 33°60' W 119°30'0 0.5
2017-Sep-13 17:59N 33°60' W 119°30'0 0.8
2017-Sep-13 17:30N 33°60' W 119°30'2 0.8
2017-Sep-13 15:11N 34°02' W 119°30'3 8.9
2017-Sep-13 14:50N 34°02' W 119°27'3 8.9
2017-Sep-13 14:28N 34°04' W 119°23'4 9.3
2017-Sep-13 14:00N 34°06' W 119°19'5 9.4
2017-Sep-13 13:30N 34°09' W 119°14'1 1.9
2017-Sep-13 12:58N 34°10' W 119°13'0 0.0
2017-Sep-13 12:25N 34°10' W 119°13'0 0.0
2017-Sep-13 11:49N 34°10' W 119°13'0 0.0
2017-Sep-13 11:13N 34°10' W 119°13'0 0.0
2017-Sep-13 10:58N 34°10' W 119°13'0 0.0
2017-Sep-13 10:07N 34°10' W 119°13'0 0.0
2017-Sep-13 09:52N 34°10' W 119°13'0 0.0
2017-Sep-13 09:28N 34°10' W 119°13'0 0.0
2017-Sep-13 08:55N 34°10' W 119°13'0 0.0
2017-Sep-13 08:25N 34°10' W 119°13'0 0.0
2017-Sep-13 07:58N 34°10' W 119°13'0 0.0
2017-Sep-13 07:28N 34°10' W 119°13'0 0.0
2017-Sep-13 06:55N 34°10' W 119°13'0 0.0
2017-Sep-13 06:22N 34°10' W 119°13'0 0.0
2017-Sep-13 05:55N 34°10' W 119°13'0 0.0
2017-Sep-13 05:25N 34°10' W 119°13'0 0.0
2017-Sep-13 04:58N 34°10' W 119°13'0 0.0
2017-Sep-13 04:28N 34°10' W 119°13'0 0.0
2017-Sep-13 03:58N 34°10' W 119°13'0 0.0
2017-Sep-13 03:28N 34°10' W 119°13'0 0.0
2017-Sep-13 02:58N 34°10' W 119°13'0 0.0
2017-Sep-13 02:19N 34°10' W 119°13'0 0.0
2017-Sep-13 01:58N 34°10' W 119°13'0 0.0
2017-Sep-13 01:28N 34°10' W 119°13'0 0.0
2017-Sep-13 00:58N 34°10' W 119°13'0 0.0
2017-Sep-13 00:28N 34°10' W 119°13'0 0.1
2017-Sep-12 23:52N 34°10' W 119°13'0 0.2
2017-Sep-12 23:29N 34°10' W 119°13'4 7.7
2017-Sep-12 22:57N 34°08' W 119°18'4 8.7
2017-Sep-12 22:30N 34°06' W 119°22'6 9.0
2017-Sep-12 21:48N 34°03' W 119°29'2 3.0
2017-Sep-12 21:01N 34°02' W 119°31'0 0.4
2017-Sep-12 20:48N 34°02' W 119°31'0 0.2
2017-Sep-12 20:26N 34°02' W 119°31'0 0.1
2017-Sep-12 18:24N 34°02' W 119°31'0 0.2
2017-Sep-12 17:57N 34°02' W 119°31'1 1.9
2017-Sep-12 17:19N 34°03' W 119°32'0 0.5
2017-Sep-12 16:32N 34°03' W 119°32'0 0.0
2017-Sep-12 16:16N 34°03' W 119°32'0 1.3
2017-Sep-12 15:56N 34°02' W 119°31'0 0.8
2017-Sep-12 15:24N 34°02' W 119°31'2 5.5
2017-Sep-12 15:00N 34°03' W 119°29'4 8.4
2017-Sep-12 14:30N 34°05' W 119°24'4 8.6
2017-Sep-12 14:00N 34°07' W 119°20'4 8.9
2017-Sep-12 13:30N 34°09' W 119°15'2 2.6
2017-Sep-12 12:54N 34°10' W 119°13'0 0.0
2017-Sep-12 12:28N 34°10' W 119°13'0 0.0
2017-Sep-12 11:34N 34°10' W 119°13'0 0.0
2017-Sep-12 10:10N 34°10' W 119°13'0 0.0
2017-Sep-12 09:52N 34°10' W 119°13'0 0.0
2017-Sep-12 09:28N 34°10' W 119°13'0 0.0
2017-Sep-12 08:58N 34°10' W 119°13'0 0.0
2017-Sep-12 08:28N 34°10' W 119°13'0 0.0
2017-Sep-12 07:40N 34°10' W 119°13'0 0.0
2017-Sep-12 05:46N 34°10' W 119°13'0 0.0
2017-Sep-12 05:28N 34°10' W 119°13'3 0.4
2017-Sep-11 23:10N 34°08' W 119°16'3 8.9
2017-Sep-11 22:53N 34°07' W 119°19'4 9.4
2017-Sep-11 22:25N 34°05' W 119°24'4 9.6
2017-Sep-11 21:59N 34°03' W 119°28'3 5.3
2017-Sep-11 21:27N 34°02' W 119°31'0 0.0
2017-Sep-11 20:54N 34°02' W 119°31'2 0.9
2017-Sep-11 19:07N 34°03' W 119°33'1 8.0
2017-Sep-11 18:57N 34°03' W 119°34'5 4.7
2017-Sep-11 17:59N 34°01' W 119°39'3 2.2
2017-Sep-11 16:45N 34°03' W 119°36'0 0.9
2017-Sep-11 16:15N 34°03' W 119°36'0 0.2
2017-Sep-11 15:40N 34°03' W 119°36'1 2.1
2017-Sep-11 15:23N 34°03' W 119°35'6 9.1
2017-Sep-11 14:44N 34°03' W 119°28'2 8.9
2017-Sep-11 14:28N 34°04' W 119°25'4 8.8
2017-Sep-11 13:58N 34°06' W 119°20'4 9.0
2017-Sep-11 13:29N 34°08' W 119°16'3 5.3
2017-Sep-11 13:00N 34°10' W 119°13'0 0.0
2017-Sep-11 12:24N 34°10' W 119°13'0 0.0
2017-Sep-11 11:33N 34°10' W 119°13'0 0.0
2017-Sep-11 11:30N 34°10' W 119°13'0 0.0
2017-Sep-11 11:00N 34°10' W 119°13'0 0.0
2017-Sep-11 10:12N 34°10' W 119°13'0 0.0
2017-Sep-11 09:57N 34°10' W 119°13'0 0.0
2017-Sep-11 09:27N 34°10' W 119°13'0 0.0
2017-Sep-11 08:18N 34°10' W 119°13'0 0.0
2017-Sep-11 08:00N 34°10' W 119°13'0 0.0
2017-Sep-11 06:46N 34°10' W 119°13'0 0.0
2017-Sep-11 06:27N 34°10' W 119°13'0 0.0
2017-Sep-11 05:27N 34°10' W 119°13'0 0.0
2017-Sep-11 04:42N 34°10' W 119°13'0 0.0
2017-Sep-11 04:15N 34°10' W 119°13'0 0.0
2017-Sep-11 04:00N 34°10' W 119°13'0 0.0
2017-Sep-11 03:30N 34°10' W 119°13'0 0.0
2017-Sep-11 02:30N 34°10' W 119°13'0 0.0
2017-Sep-11 01:57N 34°10' W 119°13'0 0.0
2017-Sep-11 01:21N 34°10' W 119°13'0 0.0
2017-Sep-11 00:48N 34°10' W 119°13'0 0.1
2017-Sep-10 23:28N 34°10' W 119°13'4 7.8
2017-Sep-10 22:54N 34°07' W 119°17'4 7.8
2017-Sep-10 22:20N 34°04' W 119°22'2 6.5
2017-Sep-10 21:58N 34°03' W 119°24'6 3.3
2017-Sep-10 20:14N 33°60' W 119°30'0 1.7
2017-Sep-10 20:00N 34°00' W 119°30'1 1.0
2017-Sep-10 19:26N 33°60' W 119°31'2 0.6
2017-Sep-10 16:08N 33°59' W 119°33'0 0.0
2017-Sep-10 15:59N 33°59' W 119°33'1 1.6
2017-Sep-10 15:14N 33°59' W 119°31'2 8.9
2017-Sep-10 15:00N 34°00' W 119°29'9 9.1
2017-Sep-10 13:59N 34°05' W 119°20'4 8.8
2017-Sep-10 13:30N 34°08' W 119°16'3 3.9
2017-Sep-10 12:48N 34°10' W 119°13'0 0.1
2017-Sep-10 12:29N 34°10' W 119°13'0 0.0
2017-Sep-10 11:53N 34°10' W 119°13'0 0.0
2017-Sep-10 11:29N 34°10' W 119°13'0 0.0
2017-Sep-10 10:59N 34°10' W 119°13'0 0.0
2017-Sep-10 10:29N 34°10' W 119°13'0 0.0
2017-Sep-10 09:47N 34°10' W 119°13'0 0.0
2017-Sep-10 09:29N 34°10' W 119°13'0 0.0
2017-Sep-10 08:53N 34°10' W 119°13'0 0.0
2017-Sep-10 08:29N 34°10' W 119°13'0 0.0
2017-Sep-10 07:53N 34°10' W 119°13'0 0.0
2017-Sep-10 07:29N 34°10' W 119°13'0 0.0
2017-Sep-10 06:41N 34°10' W 119°13'0 0.0
2017-Sep-10 06:23N 34°10' W 119°13'0 0.0
2017-Sep-10 05:56N 34°10' W 119°13'0 0.0
2017-Sep-10 05:29N 34°10' W 119°13'0 0.0
2017-Sep-10 04:59N 34°10' W 119°13'0 0.0
2017-Sep-10 04:29N 34°10' W 119°13'0 0.0
2017-Sep-10 03:56N 34°10' W 119°13'0 0.0
2017-Sep-10 03:29N 34°10' W 119°13'0 0.0
2017-Sep-10 02:56N 34°10' W 119°13'0 0.0
2017-Sep-10 02:29N 34°10' W 119°13'0 0.0
2017-Sep-10 01:59N 34°10' W 119°13'0 0.0
2017-Sep-10 01:29N 34°10' W 119°13'0 0.0
2017-Sep-10 00:59N 34°10' W 119°13'0 0.0
2017-Sep-10 00:29N 34°10' W 119°13'0 0.0
2017-Sep-09 23:56N 34°10' W 119°13'2 4.8
2017-Sep-09 23:30N 34°08' W 119°15'5 8.9
2017-Sep-09 22:57N 34°06' W 119°20'4 8.8
2017-Sep-09 22:30N 34°05' W 119°25'6 4.1
2017-Sep-09 21:06N 34°02' W 119°31'0 0.2
2017-Sep-09 20:47N 34°02' W 119°31'1 0.9
2017-Sep-09 19:42N 34°03' W 119°32'1 3.1
2017-Sep-09 19:28N 34°02' W 119°31'0 0.1
2017-Sep-09 18:32N 34°02' W 119°31'0 2.0
2017-Sep-09 18:30N 34°02' W 119°31'3 1.4
2017-Sep-09 16:21N 33°59' W 119°33'3 8.9
2017-Sep-09 16:00N 34°00' W 119°29'3 6.5
2017-Sep-09 15:29N 34°01' W 119°25'0 0.4
2017-Sep-09 15:00N 34°01' W 119°25'2 5.0
2017-Sep-09 14:30N 34°03' W 119°23'5 9.2
2017-Sep-09 14:00N 34°06' W 119°19'5 9.0
2017-Sep-09 13:30N 34°09' W 119°15'2 3.1
2017-Sep-09 12:57N 34°10' W 119°13'0 0.0
2017-Sep-09 12:29N 34°10' W 119°13'0 0.0
2017-Sep-09 11:50N 34°10' W 119°13'0 0.0
2017-Sep-09 11:26N 34°10' W 119°13'0 0.0
2017-Sep-09 10:59N 34°10' W 119°13'0 0.0
2017-Sep-09 10:29N 34°10' W 119°13'0 0.0
2017-Sep-09 09:59N 34°10' W 119°13'0 0.0
2017-Sep-09 09:26N 34°10' W 119°13'0 0.0
2017-Sep-09 08:56N 34°10' W 119°13'0 0.0
2017-Sep-09 08:29N 34°10' W 119°13'0 0.0
2017-Sep-09 07:59N 34°10' W 119°13'0 0.0
2017-Sep-09 07:29N 34°10' W 119°13'0 0.0
2017-Sep-09 06:59N 34°10' W 119°13'0 0.0
2017-Sep-09 06:29N 34°10' W 119°13'0 0.0
2017-Sep-09 05:56N 34°10' W 119°13'0 0.0
2017-Sep-09 05:26N 34°10' W 119°13'0 0.0
2017-Sep-09 04:59N 34°10' W 119°13'0 0.0
2017-Sep-09 04:29N 34°10' W 119°13'0 0.0
2017-Sep-09 03:53N 34°10' W 119°13'0 0.0
2017-Sep-09 03:20N 34°10' W 119°13'0 0.0
2017-Sep-09 02:59N 34°10' W 119°13'0 0.0
2017-Sep-09 02:29N 34°10' W 119°13'0 0.0
2017-Sep-09 01:59N 34°10' W 119°13'  

Dump ship's entire track history